IRNSS-1A

Last updated on Tue Sep 09 2025 00:02:47 GMT+0000 (Coordinated Universal Time)

1 39199U 13034A 25251.57860863 .00000091 00000+0 00000+0 0 9998 2 39199 35.0931 67.9198 0020334 177.3581 6.1660 1.00279877 44545
UTC large
Height (km)
Speed (km/s)
/
Latitude / Longitude
Inclination (degrees)
Orbital Period (minutes)
Azimuth
Elevation
Range (km)
Doppler Factor

Next 0 passes for location: London (51.5072 / 0.1276)

Sorry there are no passes over London.